When you browse on this site, cookies collect data to enhance your experience and personalize the content and advertising you see.
Visit our Privacy Policy to learn more. By continuing to use the site, you agree to this use of cookies and data.
  • In Austria
  • List of Countries
  • For 7 days
  • Water Temperature
  • Weather Map
  • News
  • Weather Widgets
  • user-avatar
    Login

    Hourly Weather Hlushytsya

    Today, 17 September, Tuesday

    Time Temperature Precipitation Wind Pressure Humidity
    00:00 +10°C° 0 mm 3 mps 745 mmHg 74%
    01:00 +10°C° 0 mm 3 mps 745 mmHg 74%
    02:00 +10°C° 0 mm 3 mps 745 mmHg 74%
    03:00 +9°C° 0 mm 3 mps 745 mmHg 77%
    04:00 +8°C° 0 mm 3 mps 744 mmHg 79%
    05:00 +8°C° 0 mm 3 mps 744 mmHg 82%
    06:00 +7°C° 0 mm 4 mps 744 mmHg 78%
    07:00 +8°C° 0 mm 5 mps 744 mmHg 74%
    08:00 +9°C° 0 mm 5 mps 744 mmHg 71%
    09:00 +10°C° 0 mm 5 mps 744 mmHg 65%
    10:00 +13°C° 0 mm 6 mps 744 mmHg 59%
    11:00 +14°C° 0 mm 6 mps 744 mmHg 54%
    12:00 +15°C° 0 mm 6 mps 743 mmHg 51%
    13:00 +15°C° 0 mm 5 mps 743 mmHg 47%
    14:00 +16°C° 0 mm 5 mps 742 mmHg 44%
    15:00 +16°C° 0 mm 5 mps 742 mmHg 46%
    16:00 +15°C° 0 mm 5 mps 742 mmHg 49%
    17:00 +14°C° 0 mm 5 mps 741 mmHg 51%
    18:00 +13°C° 0 mm 5 mps 741 mmHg 55%
    19:00 +12°C° 0 mm 5 mps 741 mmHg 59%
    20:00 +11°C° 0 mm 4 mps 740 mmHg 63%
    21:00 +11°C° 0.2 mm 4 mps 740 mmHg 68%
    22:00 +10°C° 0.2 mm 4 mps 740 mmHg 72%
    23:00 +10°C° 0.2 mm 4 mps 739 mmHg 77%

    Tomorrow, 18 September, Wednesday

    Time Temperature Precipitation Wind Pressure Humidity
    00:00 +8°C° 0.4 mm 5 mps 739 mmHg 80%
    01:00 +7°C° 0.4 mm 5 mps 739 mmHg 82%
    02:00 +5°C° 0.4 mm 6 mps 740 mmHg 85%
    03:00 +5°C° 0.3 mm 6 mps 740 mmHg 85%
    04:00 +5°C° 0.3 mm 6 mps 740 mmHg 85%
    05:00 +5°C° 0.3 mm 6 mps 740 mmHg 85%
    06:00 +5°C° 0.1 mm 6 mps 740 mmHg 83%
    07:00 +5°C° 0.1 mm 7 mps 740 mmHg 80%
    08:00 +5°C° 0.1 mm 8 mps 740 mmHg 78%
    09:00 +6°C° 0 mm 8 mps 741 mmHg 76%
    10:00 +6°C° 0 mm 8 mps 741 mmHg 75%
    11:00 +7°C° 0 mm 8 mps 741 mmHg 74%
    12:00 +9°C° 0.1 mm 8 mps 742 mmHg 69%
    13:00 +10°C° 0.1 mm 8 mps 742 mmHg 65%
    14:00 +11°C° 0.1 mm 8 mps 742 mmHg 60%
    15:00 +11°C° 0.1 mm 8 mps 743 mmHg 61%
    16:00 +11°C° 0.1 mm 8 mps 743 mmHg 62%
    17:00 +11°C° 0.1 mm 7 mps 744 mmHg 63%
    18:00 +10°C° 0.1 mm 6 mps 745 mmHg 68%
    19:00 +9°C° 0.1 mm 6 mps 745 mmHg 74%
    20:00 +8°C° 0.1 mm 5 mps 746 mmHg 80%
    21:00 +8°C° 0 mm 5 mps 746 mmHg 80%
    22:00 +7°C° 0 mm 5 mps 747 mmHg 81%
    23:00 +7°C° 0 mm 5 mps 747 mmHg 81%

    Day after tomorrow, 19 September, Thursday

    Time Temperature Precipitation Wind Pressure Humidity
    00:00 +6°C° 0 mm 4 mps 747 mmHg 83%
    01:00 +6°C° 0 mm 4 mps 748 mmHg 85%
    02:00 +5°C° 0 mm 4 mps 748 mmHg 87%
    03:00 +5°C° 0 mm 4 mps 748 mmHg 88%
    04:00 +5°C° 0 mm 4 mps 748 mmHg 90%
    05:00 +4°C° 0 mm 4 mps 749 mmHg 91%
    06:00 +5°C° 0 mm 4 mps 749 mmHg 86%
    07:00 +6°C° 0 mm 5 mps 749 mmHg 81%
    08:00 +7°C° 0 mm 5 mps 749 mmHg 76%
    09:00 +8°C° 0.1 mm 5 mps 749 mmHg 70%
    10:00 +10°C° 0.1 mm 5 mps 750 mmHg 65%
    11:00 +11°C° 0.1 mm 6 mps 750 mmHg 59%
    12:00 +13°C° 0.4 mm 6 mps 750 mmHg 58%
    13:00 +13°C° 0.4 mm 6 mps 750 mmHg 58%
    14:00 +13°C° 0.4 mm 6 mps 749 mmHg 57%
    15:00 +13°C° 0.4 mm 5 mps 749 mmHg 61%
    16:00 +12°C° 0.4 mm 4 mps 749 mmHg 65%
    17:00 +12°C° 0.4 mm 3 mps 749 mmHg 69%
    18:00 +10°C° 0.1 mm 3 mps 749 mmHg 74%
    19:00 +9°C° 0.1 mm 3 mps 750 mmHg 79%
    20:00 +8°C° 0.1 mm 3 mps 750 mmHg 84%
    21:00 +7°C° 0 mm 3 mps 750 mmHg 85%
    22:00 +7°C° 0 mm 3 mps 750 mmHg 87%
    23:00 +7°C° 0 mm 3 mps 750 mmHg 88%

    20 September, Friday

    Time Temperature Precipitation Wind Pressure Humidity
    00:00 +7°C° 0 mm 3 mps 750 mmHg 88%
    01:00 +5°C° 0 mm 4 mps 750 mmHg 88%
    02:00 +5°C° 0 mm 4 mps 750 mmHg 89%
    03:00 +5°C° 0 mm 4 mps 750 mmHg 91%
    04:00 +4°C° 0 mm 4 mps 750 mmHg 92%
    05:00 +3°C° 0 mm 4 mps 750 mmHg 94%
    06:00 +4°C° 0 mm 4 mps 750 mmHg 90%
    07:00 +3°C° 0 mm 5 mps 751 mmHg 86%
    08:00 +5°C° 0 mm 5 mps 751 mmHg 82%
    09:00 +5°C° 0 mm 6 mps 751 mmHg 73%
    10:00 +8°C° 0 mm 6 mps 751 mmHg 63%
    11:00 +9°C° 0 mm 7 mps 752 mmHg 53%
    12:00 +9°C° 0.3 mm 6 mps 752 mmHg 59%
    13:00 +8°C° 0.3 mm 6 mps 751 mmHg 66%
    14:00 +8°C° 0.3 mm 5 mps 751 mmHg 72%
    15:00 +8°C° 0.1 mm 5 mps 752 mmHg 68%
    16:00 +9°C° 0.1 mm 5 mps 752 mmHg 65%
    17:00 +10°C° 0.1 mm 4 mps 752 mmHg 61%
    18:00 +8°C° 0 mm 4 mps 753 mmHg 68%
    19:00 +7°C° 0 mm 3 mps 753 mmHg 75%
    20:00 +5°C° 0 mm 3 mps 754 mmHg 81%
    21:00 +4°C° 0 mm 3 mps 754 mmHg 84%
    22:00 +4°C° 0 mm 3 mps 754 mmHg 86%
    23:00 +3°C° 0 mm 3 mps 755 mmHg 88%

    21 September, Saturday

    Time Temperature Precipitation Wind Pressure Humidity
    00:00 +4°C° 0 mm 2 mps 755 mmHg 89%
    01:00 +3°C° 0 mm 2 mps 755 mmHg 91%
    02:00 +3°C° 0 mm 2 mps 756 mmHg 92%
    03:00 +3°C° 0 mm 2 mps 756 mmHg 92%
    04:00 +2°C° 0 mm 2 mps 756 mmHg 92%
    05:00 +2°C° 0 mm 2 mps 756 mmHg 93%
    06:00 +3°C° 0 mm 2 mps 756 mmHg 88%
    07:00 +4°C° 0 mm 2 mps 757 mmHg 83%
    08:00 +6°C° 0 mm 2 mps 757 mmHg 78%
    09:00 +7°C° 0 mm 3 mps 757 mmHg 69%
    10:00 +9°C° 0 mm 3 mps 757 mmHg 61%
    11:00 +11°C° 0 mm 3 mps 757 mmHg 53%
    12:00 +11°C° 0 mm 3 mps 756 mmHg 50%
    13:00 +12°C° 0 mm 4 mps 756 mmHg 47%
    14:00 +13°C° 0 mm 4 mps 755 mmHg 45%
    15:00 +13°C° 0 mm 3 mps 755 mmHg 48%
    16:00 +12°C° 0 mm 3 mps 755 mmHg 52%
    17:00 +13°C° 0 mm 2 mps 755 mmHg 56%
    18:00 +12°C° 0.2 mm 2 mps 755 mmHg 64%
    19:00 +10°C° 0.2 mm 3 mps 755 mmHg 72%
    20:00 +9°C° 0.2 mm 3 mps 754 mmHg 80%
    21:00 +9°C° 0.2 mm 3 mps 754 mmHg 81%
    22:00 +9°C° 0.2 mm 3 mps 754 mmHg 81%
    23:00 +10°C° 0.2 mm 3 mps 754 mmHg 82%

    22 September, Sunday

    Time Temperature Precipitation Wind Pressure Humidity
    00:00 +10°C° 0.2 mm 4 mps 754 mmHg 84%
    01:00 +10°C° 0.2 mm 4 mps 754 mmHg 86%
    02:00 +11°C° 0.2 mm 4 mps 753 mmHg 87%
    03:00 +10°C° 0 mm 4 mps 754 mmHg 89%
    04:00 +10°C° 0 mm 4 mps 754 mmHg 91%
    05:00 +10°C° 0 mm 4 mps 754 mmHg 93%
    06:00 +10°C° 0 mm 4 mps 754 mmHg 92%
    07:00 +11°C° 0 mm 4 mps 754 mmHg 92%
    08:00 +11°C° 0 mm 4 mps 755 mmHg 91%
    09:00 +12°C° 0 mm 4 mps 755 mmHg 86%
    10:00 +13°C° 0 mm 3 mps 755 mmHg 80%
    11:00 +14°C° 0 mm 3 mps 756 mmHg 75%
    12:00 +16°C° 0 mm 3 mps 756 mmHg 71%
    13:00 +17°C° 0 mm 3 mps 756 mmHg 67%
    14:00 +17°C° 0 mm 3 mps 756 mmHg 63%
    15:00 +17°C° 0 mm 2 mps 756 mmHg 65%
    16:00 +17°C° 0 mm 2 mps 756 mmHg 66%
    17:00 +18°C° 0 mm 1 mps 756 mmHg 67%
    18:00 +15°C° 0 mm 1 mps 756 mmHg 73%
    19:00 +14°C° 0 mm 1 mps 756 mmHg 80%
    20:00 +12°C° 0 mm 1 mps 757 mmHg 86%
    21:00 +12°C° 0 mm 1 mps 757 mmHg 87%
    22:00 +11°C° 0 mm 1 mps 757 mmHg 89%
    23:00 +10°C° 0 mm 2 mps 757 mmHg 91%
    Show more